Tiempo cada hora Barro

Hoy, 1 Marzo, Lunes

Tiempo Temperatura Precipitaciones Viento Presión Humedad
00:00 +22°C° 0 mm 0 mps 732 mmHg 90%
01:00 +22°C° 0.1 mm 0 mps 732 mmHg 91%
02:00 +24°C° 0.1 mm 1 mps 732 mmHg 92%
03:00 +23°C° 0.1 mm 1 mps 731 mmHg 94%
04:00 +23°C° 0 mm 1 mps 732 mmHg 94%
05:00 +23°C° 0 mm 1 mps 732 mmHg 95%
06:00 +23°C° 0 mm 1 mps 732 mmHg 95%
07:00 +25°C° 0 mm 1 mps 733 mmHg 88%
08:00 +27°C° 0 mm 2 mps 733 mmHg 80%
09:00 +29°C° 0 mm 2 mps 734 mmHg 72%
10:00 +30°C° 0.4 mm 2 mps 733 mmHg 68%
11:00 +30°C° 0.4 mm 2 mps 733 mmHg 65%
12:00 +31°C° 0.4 mm 3 mps 732 mmHg 61%
13:00 +32°C° 0.3 mm 2 mps 732 mmHg 61%
14:00 +32°C° 0.3 mm 2 mps 731 mmHg 60%
15:00 +32°C° 0.3 mm 2 mps 730 mmHg 59%
16:00 +30°C° 0.3 mm 2 mps 730 mmHg 67%
17:00 +28°C° 0.3 mm 1 mps 731 mmHg 75%
18:00 +27°C° 0.3 mm 1 mps 731 mmHg 84%
19:00 +26°C° 0.6 mm 1 mps 731 mmHg 87%
20:00 +25°C° 0.6 mm 2 mps 732 mmHg 90%
21:00 +24°C° 0.6 mm 2 mps 732 mmHg 93%
22:00 +24°C° 1.3 mm 2 mps 733 mmHg 94%
23:00 +24°C° 1.3 mm 1 mps 733 mmHg 95%

Mañana, 2 Marzo, Martes

Tiempo Temperatura Precipitaciones Viento Presión Humedad
00:00 +24°C° 1.3 mm 1 mps 733 mmHg 96%
01:00 +24°C° 0.8 mm 1 mps 733 mmHg 96%
02:00 +23°C° 0.8 mm 1 mps 733 mmHg 96%
03:00 +23°C° 0.8 mm 1 mps 732 mmHg 97%
04:00 +23°C° 0.2 mm 1 mps 733 mmHg 97%
05:00 +23°C° 0.2 mm 1 mps 733 mmHg 97%
06:00 +23°C° 0.2 mm 1 mps 733 mmHg 97%
07:00 +25°C° 0 mm 1 mps 734 mmHg 90%
08:00 +26°C° 0 mm 2 mps 734 mmHg 82%
09:00 +28°C° 0 mm 3 mps 735 mmHg 75%
10:00 +30°C° 0.1 mm 3 mps 735 mmHg 68%
11:00 +31°C° 0.1 mm 3 mps 734 mmHg 61%
12:00 +33°C° 0.1 mm 3 mps 734 mmHg 54%
13:00 +34°C° 0 mm 3 mps 733 mmHg 52%
14:00 +34°C° 0 mm 3 mps 733 mmHg 50%
15:00 +34°C° 0 mm 2 mps 732 mmHg 48%
16:00 +32°C° 0 mm 2 mps 732 mmHg 55%
17:00 +30°C° 0 mm 1 mps 732 mmHg 61%
18:00 +28°C° 0 mm 1 mps 733 mmHg 67%
19:00 +28°C° 0 mm 1 mps 733 mmHg 68%
20:00 +27°C° 0 mm 1 mps 734 mmHg 69%
21:00 +27°C° 0 mm 1 mps 735 mmHg 70%
22:00 +26°C° 0.4 mm 1 mps 735 mmHg 77%
23:00 +25°C° 0.4 mm 1 mps 735 mmHg 83%

Pasado mañana, 3 Marzo, Miércoles

Tiempo Temperatura Precipitaciones Viento Presión Humedad
00:00 +24°C° 0.4 mm 1 mps 735 mmHg 89%
01:00 +24°C° 0 mm 1 mps 735 mmHg 91%
02:00 +23°C° 0 mm 1 mps 734 mmHg 92%
03:00 +23°C° 0 mm 1 mps 734 mmHg 94%
04:00 +23°C° 0 mm 1 mps 735 mmHg 95%
05:00 +22°C° 0 mm 1 mps 735 mmHg 95%
06:00 +22°C° 0 mm 1 mps 735 mmHg 96%
07:00 +24°C° 0 mm 1 mps 736 mmHg 87%
08:00 +27°C° 0 mm 1 mps 736 mmHg 77%
09:00 +29°C° 0 mm 1 mps 737 mmHg 67%
10:00 +31°C° 0 mm 2 mps 736 mmHg 60%
11:00 +32°C° 0 mm 2 mps 736 mmHg 52%
12:00 +35°C° 0 mm 2 mps 736 mmHg 45%
13:00 +35°C° 0 mm 2 mps 735 mmHg 44%
14:00 +35°C° 0 mm 2 mps 734 mmHg 43%
15:00 +35°C° 0 mm 2 mps 733 mmHg 43%
16:00 +34°C° 0 mm 2 mps 733 mmHg 49%
17:00 +31°C° 0 mm 1 mps 733 mmHg 56%
18:00 +29°C° 0 mm 1 mps 733 mmHg 62%
19:00 +28°C° 0.5 mm 1 mps 734 mmHg 71%
20:00 +26°C° 0.5 mm 1 mps 734 mmHg 80%
21:00 +25°C° 0.5 mm 1 mps 735 mmHg 89%
22:00 +24°C° 0.3 mm 1 mps 735 mmHg 90%
23:00 +24°C° 0.3 mm 1 mps 735 mmHg 92%

4 Marzo, Jueves

Tiempo Temperatura Precipitaciones Viento Presión Humedad
00:00 +24°C° 0.3 mm 1 mps 735 mmHg 94%
01:00 +23°C° 0 mm 1 mps 735 mmHg 94%
02:00 +21°C° 0 mm 0 mps 735 mmHg 94%
03:00 +21°C° 0 mm 0 mps 734 mmHg 95%
04:00 +21°C° 0 mm 0 mps 735 mmHg 95%
05:00 +23°C° 0 mm 1 mps 735 mmHg 95%
06:00 +23°C° 0 mm 1 mps 735 mmHg 96%
07:00 +25°C° 0 mm 1 mps 736 mmHg 87%
08:00 +27°C° 0 mm 2 mps 736 mmHg 78%
09:00 +29°C° 0 mm 2 mps 737 mmHg 69%
10:00 +31°C° 0 mm 2 mps 736 mmHg 61%
11:00 +32°C° 0 mm 2 mps 736 mmHg 52%
12:00 +35°C° 0 mm 2 mps 735 mmHg 44%
13:00 +35°C° 0 mm 2 mps 735 mmHg 45%
14:00 +35°C° 0 mm 2 mps 734 mmHg 46%
15:00 +35°C° 0 mm 2 mps 733 mmHg 47%
16:00 +32°C° 0 mm 2 mps 733 mmHg 52%
17:00 +31°C° 0 mm 1 mps 733 mmHg 57%
18:00 +29°C° 0 mm 1 mps 733 mmHg 62%
19:00 +28°C° 0 mm 1 mps 734 mmHg 63%
20:00 +28°C° 0 mm 1 mps 734 mmHg 64%
21:00 +28°C° 0 mm 1 mps 734 mmHg 65%
22:00 +27°C° 0.3 mm 1 mps 734 mmHg 72%
23:00 +26°C° 0.3 mm 1 mps 735 mmHg 78%

5 Marzo, Viernes

Tiempo Temperatura Precipitaciones Viento Presión Humedad
00:00 +25°C° 0.3 mm 1 mps 735 mmHg 84%
01:00 +25°C° 0 mm 1 mps 734 mmHg 86%
02:00 +24°C° 0 mm 1 mps 734 mmHg 88%
03:00 +24°C° 0 mm 1 mps 734 mmHg 90%
04:00 +24°C° 0 mm 1 mps 734 mmHg 91%
05:00 +23°C° 0 mm 1 mps 734 mmHg 92%
06:00 +23°C° 0 mm 1 mps 734 mmHg 93%
07:00 +25°C° 0 mm 1 mps 735 mmHg 84%
08:00 +27°C° 0 mm 1 mps 735 mmHg 76%
09:00 +29°C° 0 mm 1 mps 736 mmHg 67%
10:00 +31°C° 0 mm 2 mps 735 mmHg 61%
11:00 +32°C° 0 mm 2 mps 735 mmHg 55%
12:00 +35°C° 0 mm 2 mps 734 mmHg 48%
13:00 +35°C° 0.1 mm 2 mps 734 mmHg 49%
14:00 +34°C° 0.1 mm 2 mps 733 mmHg 49%
15:00 +34°C° 0.1 mm 2 mps 732 mmHg 50%
16:00 +32°C° 0 mm 2 mps 732 mmHg 56%
17:00 +30°C° 0 mm 2 mps 732 mmHg 62%
18:00 +29°C° 0 mm 2 mps 732 mmHg 68%
19:00 +27°C° 0.2 mm 1 mps 733 mmHg 73%
20:00 +26°C° 0.2 mm 1 mps 733 mmHg 79%
21:00 +23°C° 0.2 mm 0 mps 734 mmHg 85%
22:00 +23°C° 0 mm 0 mps 734 mmHg 86%
23:00 +23°C° 0 mm 0 mps 734 mmHg 87%

6 Marzo, Sábado

Tiempo Temperatura Precipitaciones Viento Presión Humedad
00:00 +22°C° 0 mm 0 mps 734 mmHg 88%
01:00 +22°C° 0 mm 0 mps 734 mmHg 90%
02:00 +22°C° 0 mm 0 mps 734 mmHg 92%
03:00 +21°C° 0 mm 0 mps 734 mmHg 94%
04:00 +21°C° 0 mm 0 mps 734 mmHg 94%
05:00 +21°C° 0 mm 0 mps 734 mmHg 95%
06:00 +21°C° 0 mm 0 mps 734 mmHg 96%
07:00 +25°C° 0 mm 1 mps 735 mmHg 86%
08:00 +28°C° 0 mm 1 mps 735 mmHg 75%
09:00 +30°C° 0 mm 2 mps 736 mmHg 65%
10:00 +31°C° 0 mm 2 mps 736 mmHg 58%
11:00 +34°C° 0 mm 2 mps 735 mmHg 51%
12:00 +35°C° 0 mm 2 mps 735 mmHg 45%
13:00 +35°C° 0 mm 2 mps 734 mmHg 44%
14:00 +35°C° 0 mm 2 mps 733 mmHg 44%
15:00 +35°C° 0 mm 2 mps 733 mmHg 44%
16:00 +34°C° 0 mm 2 mps 733 mmHg 50%
17:00 +31°C° 0 mm 1 mps 733 mmHg 56%
18:00 +29°C° 0 mm 1 mps 733 mmHg 62%
19:00 +28°C° 0 mm 1 mps 733 mmHg 67%
20:00 +27°C° 0 mm 1 mps 734 mmHg 71%
21:00 +26°C° 0 mm 1 mps 734 mmHg 76%
22:00 +26°C° 0.1 mm 1 mps 735 mmHg 80%
23:00 +26°C° 0.1 mm 1 mps 735 mmHg 83%
Mostrar más

Necesitamos Su Consentimiento

Meteoprog y nuestros Proveedores de Servicios pueden almacenar y acceder a sus datos personales como cookies, identificadores de dispositivo u otras tecnologías similares de su dispositivo y procesar dichos datos para personalizar contenido y anuncios, además de ofrecer funciones de redes sociales y analizar el tráfico.

  • Almacenar y/o acceder a información en su dispositivo

    Se puede almacenar o acceder a cookies, identificadores de dispositivo u otra información de su dispositivo para los fines anteriormente indicados.

  • Anuncios y contenido personalizados, medición de anuncios y contenido, percepciones del público, y desarrollo de productos

    Los anuncios y el contenido pueden personalizarse en base a su perfil. Se pueden añadir más datos para personalizar mejor los anuncios y contenidos. Se puede medir el rendimiento de los anuncios y contenidos. Se puede obtener la percepción sobre el público que ha visto los anuncios y contenidos. Dichos datos pueden usarse para desarrollar o mejorar la experiencia del usuario, sistemas y software.

Al hacer clic en ‘Estoy De Acuerdo’ usted permitirá el uso de las cookies, identificadores de dispositivo, balizas web u otras tecnologías similares indicadas. Su configuración puede cambiarse desde el navegador de su dispositivo.

Para ciertos fines, los intereses legítimos pueden ser considerados por encima del consentimiento. Puede leer más sobre ello en nuestra Política de Privacidad y Cookies.